Weather History for Three Rivers, MI

Change the Weather History Date:

Saturday, January 11, 2014

  Actual Average Record
Temperature  
Mean Temperature 37 °F -  
Max Temperature 41 °F 29 °F 58 °F (1975)
Min Temperature 33 °F 13 °F -13 °F (1982)
Degree Days  
Heating Degree Days 28    
Moisture  
Dew Point 34 °F    
Average Humidity 90    
Maximum Humidity 97    
Minimum Humidity 80    
Precipitation  
Precipitation 0.00 in - - ()
Sea Level Pressure  
Sea Level Pressure 29.51 in    
Wind  
Wind Speed 11 mph (WSW)    
Max Wind Speed 21 mph    
Max Gust Speed 29 mph    
Visibility 5 miles    
Events Fog , Rain    
Averages and records for this station are not official NWS values.
T = Trace of Precipitation, MM = Missing Value Source: NWS Daily Summary

Daily Weather History Graph

Daily Weather History Graph

Search for Another Location

Airport:

Trip Planner

Search our weather history database for the weather conditions in past years. The results will help you decide how hot, cold, wet, or windy it might be!

Date:

Astronomy

Jan. 11, 2014 Rise Set
Actual Time 8:09 AM EST 5:31 PM EST
Civil Twilight 7:38 AM EST 6:02 PM EST
Nautical Twilight 7:03 AM EST 6:37 PM EST
Astronomical Twilight 6:29 AM EST 7:11 PM EST
Moon 2:16 PM EST (1/11) 4:12 AM EST (1/11)
Length of Visible Light 10h 24m
Length of Day
9h 22m
Waxing Gibbous, 83% of the Moon is Illuminated
Jan 11
Waxing Gibbous
Jan 15
Full
Jan 24
Last Quarter
Jan 30
New
Feb 6
First Quarter

Hourly Weather History & Observations

Time (EST) Temp. Windchill Dew Point Humidity Pressure Visibility Wind Dir Wind Speed Gust Speed Precip Events Conditions
12:14 AM 40.6 °F 33.4 °F 38.7 °F 93% 29.59 in 7.0 mi South 12.7 mph - N/A Rain Rain
12:35 AM 41.2 °F 34.1 °F 39.2 °F 93% 29.56 in 10.0 mi South 12.7 mph 19.6 mph N/A   Overcast
12:55 AM 40.5 °F 33.6 °F 38.5 °F 93% 29.57 in 7.0 mi SSW 11.5 mph - N/A   Overcast
1:15 AM 40.8 °F 33.7 °F 38.8 °F 93% 29.56 in 7.0 mi South 12.7 mph - N/A   Overcast
1:35 AM 40.6 °F 34.3 °F 38.7 °F 93% 29.55 in 7.0 mi South 10.4 mph - N/A   Overcast
1:55 AM 40.3 °F 33.9 °F 38.3 °F 93% 29.55 in 5.0 mi SSW 10.4 mph - N/A Rain Light Rain
2:15 AM 40.5 °F 34.6 °F 38.7 °F 93% 29.54 in 4.0 mi South 9.2 mph - N/A   Light Drizzle
2:35 AM 40.3 °F 34.4 °F 38.5 °F 93% 29.53 in 2.0 mi South 9.2 mph - N/A   Overcast
2:54 AM 40.6 °F 35.4 °F 38.8 °F 93% 29.52 in 0.5 mi South 8.1 mph - N/A Fog Fog
3:15 AM 39.7 °F 34.3 °F 38.3 °F 95% 29.51 in 0.2 mi South 8.1 mph - N/A Rain Light Rain
3:34 AM 39.7 °F 34.3 °F 38.3 °F 95% 29.50 in 0.2 mi South 8.1 mph - N/A Rain Light Rain
3:55 AM 40.1 °F 34.1 °F 38.5 °F 94% 29.49 in 0.2 mi South 9.2 mph - N/A Fog Fog
4:15 AM 40.1 °F 34.1 °F 38.7 °F 95% 29.47 in 0.2 mi South 9.2 mph - N/A   Unknown
4:34 AM 40.3 °F 33.9 °F 38.8 °F 95% 29.47 in 0.2 mi South 10.4 mph - N/A Fog Fog
4:55 AM 40.1 °F 33.6 °F 38.7 °F 95% 29.45 in 0.2 mi South 10.4 mph - N/A Fog Fog
5:15 AM 40.5 °F 34.6 °F 39.2 °F 95% 29.43 in 0.2 mi South 9.2 mph - N/A   Unknown
5:35 AM 39.4 °F 33.8 °F 37.9 °F 95% 29.43 in 0.2 mi SSW 8.1 mph - N/A Fog Fog
5:55 AM 40.1 °F 36.1 °F 38.8 °F 95% 29.43 in 0.2 mi SW 5.8 mph - N/A   Unknown
6:14 AM 39.4 °F 35.2 °F 38.1 °F 95% 29.43 in 0.2 mi SSW 5.8 mph - N/A Rain Light Rain
6:35 AM 39.4 °F 36.1 °F 38.3 °F 96% 29.42 in 0.5 mi South 4.6 mph - N/A Rain Light Rain
6:55 AM 38.1 °F 34.6 °F 36.9 °F 95% 29.42 in 0.5 mi South 4.6 mph - N/A Rain Light Rain
7:14 AM 39.2 °F 35.0 °F 37.8 °F 95% 29.41 in 0.5 mi SW 5.8 mph - N/A Rain Rain
7:35 AM 40.6 °F 36.0 °F 39.4 °F 95% 29.40 in 5.0 mi SW 6.9 mph - N/A Rain Rain
7:55 AM 40.6 °F 36.7 °F 39.4 °F 95% 29.40 in 7.0 mi SW 5.8 mph - N/A   Drizzle
8:15 AM 39.7 °F 36.5 °F 38.5 °F 95% 29.40 in 4.0 mi SW 4.6 mph - N/A Rain Rain
8:35 AM 39.9 °F 35.8 °F 38.8 °F 96% 29.40 in 2.5 mi SW 5.8 mph - N/A Rain Rain
8:54 AM 40.3 °F 38.2 °F 39.2 °F 96% 29.40 in 3.0 mi SW 3.5 mph - N/A   Overcast
9:15 AM 40.5 °F 37.3 °F 39.2 °F 95% 29.40 in 1.2 mi WSW 4.6 mph - N/A   Overcast
9:35 AM 40.1 °F 35.3 °F 39.2 °F 97% 29.40 in 1.8 mi West 6.9 mph - N/A Rain Rain
9:54 AM 40.1 °F 34.7 °F 39.0 °F 96% 29.41 in 1.5 mi West 8.1 mph - N/A   Overcast
10:15 AM 39.9 °F 33.9 °F 38.7 °F 95% 29.41 in 1.2 mi West 9.2 mph - N/A   Overcast
10:35 AM 39.2 °F 30.5 °F 37.8 °F 95% 29.41 in 2.5 mi West 16.1 mph 19.6 mph N/A   Overcast
10:54 AM 38.3 °F 28.7 °F 37.4 °F 97% 29.42 in 7.0 mi West 18.4 mph 21.9 mph N/A   Overcast
11:15 AM 37.6 °F 28.8 °F 36.5 °F 96% 29.43 in 1.5 mi WNW 15.0 mph - N/A   Overcast
11:34 AM 36.5 °F 27.4 °F 35.4 °F 96% 29.42 in 3.0 mi West 15.0 mph - N/A   Mist
11:55 AM 36.5 °F 27.0 °F 35.2 °F 95% 29.42 in 10.0 mi West 16.1 mph 21.9 mph N/A   Unknown
12:15 PM 36.1 °F 26.2 °F 34.9 °F 95% 29.42 in 3.0 mi West 17.3 mph 24.2 mph N/A   Mist
12:34 PM 35.6 °F 27.1 °F 34.2 °F 94% 29.42 in 2.0 mi West 12.7 mph 25.3 mph N/A   Mist
12:55 PM 35.2 °F 24.4 °F 33.8 °F 94% 29.42 in 4.0 mi West 19.6 mph 28.8 mph N/A   Mist
1:15 PM 35.1 °F 27.4 °F 33.3 °F 93% 29.42 in 4.0 mi West 10.4 mph - N/A Rain Light Rain
1:34 PM 34.9 °F 26.6 °F 32.9 °F 92% 29.43 in 3.0 mi West 11.5 mph 16.1 mph N/A   Mist
1:55 PM 35.1 °F 25.9 °F 32.7 °F 91% 29.43 in 5.0 mi West 13.8 mph 21.9 mph N/A   Mist
2:15 PM 35.1 °F 25.9 °F 32.2 °F 89% 29.44 in 7.0 mi West 13.8 mph 21.9 mph N/A   Unknown
2:34 PM 34.7 °F 23.7 °F 32.0 °F 90% 29.44 in 5.0 mi West 19.6 mph 23.0 mph N/A   Mist
2:55 PM 34.7 °F 25.1 °F 32.0 °F 90% 29.45 in 7.0 mi West 15.0 mph 23.0 mph N/A   Unknown
3:15 PM 34.7 °F 24.3 °F 31.8 °F 89% 29.46 in 10.0 mi West 17.3 mph 21.9 mph N/A   Unknown
3:35 PM 34.7 °F 24.0 °F 31.6 °F 89% 29.47 in 10.0 mi West 18.4 mph 25.3 mph N/A   Unknown
3:55 PM 34.7 °F 24.0 °F 31.5 °F 88% 29.48 in 7.0 mi West 18.4 mph 24.2 mph N/A   Unknown
4:14 PM 34.7 °F 25.1 °F 31.3 °F 87% 29.50 in 7.0 mi West 15.0 mph - N/A   Unknown
4:35 PM 34.5 °F 26.7 °F 31.3 °F 88% 29.51 in 5.0 mi West 10.4 mph 18.4 mph N/A   Mist
4:55 PM 34.7 °F 25.1 °F 30.9 °F 86% 29.52 in 10.0 mi West 15.0 mph 23.0 mph N/A   Unknown
5:14 PM 34.7 °F 25.9 °F 30.2 °F 84% 29.53 in 10.0 mi West 12.7 mph - N/A   Unknown
5:35 PM 34.3 °F 24.6 °F 29.3 °F 82% 29.54 in 10.0 mi West 15.0 mph 20.7 mph N/A   Unknown
5:55 PM 34.3 °F 25.9 °F 29.7 °F 83% 29.55 in 10.0 mi West 11.5 mph 24.2 mph N/A   Unknown
6:15 PM 34.2 °F 23.6 °F 28.9 °F 81% 29.56 in 10.0 mi West 17.3 mph 25.3 mph N/A   Unknown
6:35 PM 34.0 °F 24.6 °F 28.8 °F 81% 29.57 in 10.0 mi West 13.8 mph 20.7 mph N/A   Unknown
6:55 PM 34.0 °F 23.4 °F 28.9 °F 82% 29.58 in 10.0 mi West 17.3 mph - N/A   Unknown
7:15 PM 34.0 °F 22.4 °F 28.4 °F 80% 29.59 in 10.0 mi West 20.7 mph 26.5 mph N/A   Unknown
7:35 PM 34.0 °F 26.0 °F 28.4 °F 80% 29.60 in 10.0 mi West 10.4 mph 19.6 mph N/A   Unknown
7:55 PM 33.8 °F 25.8 °F 28.8 °F 82% 29.60 in 7.0 mi West 10.4 mph - N/A   Unknown
8:15 PM 33.8 °F 27.0 °F 28.9 °F 82% 29.61 in 7.0 mi West 8.1 mph - N/A   Unknown
8:35 PM 33.8 °F 23.5 °F 29.3 °F 84% 29.62 in 7.0 mi West 16.1 mph - N/A   Unknown
8:55 PM 33.8 °F 24.3 °F 29.1 °F 83% 29.63 in 7.0 mi West 13.8 mph - N/A   Unknown
9:15 PM 33.8 °F 23.5 °F 29.1 °F 83% 29.65 in 7.0 mi West 16.1 mph 19.6 mph N/A   Unknown
9:34 PM 33.8 °F 23.9 °F 28.9 °F 82% 29.65 in 7.0 mi West 15.0 mph - N/A   Unknown
9:55 PM 33.8 °F 23.9 °F 29.1 °F 83% 29.66 in 7.0 mi WNW 15.0 mph 21.9 mph N/A   Unknown
10:15 PM 33.8 °F 23.5 °F 28.9 °F 82% 29.67 in 7.0 mi West 16.1 mph 21.9 mph N/A   Unknown
10:34 PM 33.8 °F 24.3 °F 29.1 °F 83% 29.68 in 7.0 mi West 13.8 mph 18.4 mph N/A   Unknown
10:55 PM 33.8 °F 24.3 °F 29.3 °F 84% 29.68 in 7.0 mi West 13.8 mph - N/A   Unknown
11:15 PM 33.8 °F 23.5 °F 29.3 °F 84% 29.69 in 7.0 mi West 16.1 mph - N/A   Unknown
11:34 PM 33.8 °F 24.8 °F 29.3 °F 84% 29.69 in 7.0 mi WNW 12.7 mph - N/A   Unknown
11:55 PM 33.6 °F 24.6 °F 29.3 °F 84% 29.70 in 7.0 mi West 12.7 mph - N/A   Unknown